Waarnemingen

Advertentie
Mijn weer
Wick Airport (AWS), Groot Brittannië (3075): temperatuur & dauwpunt: 19.09.2018 06:00:00 - 25.09.2018 06:00:00 (BST)Wick Airport (AWS), Groot Brittannië (3075): temperatuur -20cm: 19.09.2018 06:00:00 - 25.09.2018 06:00:00 (BST)Wick Airport (AWS), Groot Brittannië (3075): windsnelheid & windstoten: 19.09.2018 06:00:00 - 25.09.2018 06:00:00 (BST)Wick Airport (AWS), Groot Brittannië (3075): windrichting: 19.09.2018 06:00:00 - 25.09.2018 06:00:00 (BST)Wick Airport (AWS), Groot Brittannië (3075): luchtdruk: 19.09.2018 06:00:00 - 25.09.2018 06:00:00 (BST)Wick Airport (AWS), Groot Brittannië (3075): zicht: 19.09.2018 06:00:00 - 25.09.2018 06:00:00 (BST)Wick Airport (AWS), Groot Brittannië (3075): neerslag: 19.09.2018 06:00:00 - 25.09.2018 06:00:00 (BST)
Datum & Tijd tt [°C] td [°C] tt -20cm [°C] ff [km/u] ff [kn] fx [km/u] fx [kn] dd ppp [hPa] vv [km] rr [mm]
25.09.2018 06:00:00 9,3 5,3 - 15 8 - - ZZW 1028,6 30 0,0
25.09.2018 05:00:00 8,5 6,0 - 11 6 - - ZW 1028,8 45 0,0
25.09.2018 04:00:00 9,2 6,2 - 16 9 - - ZZW 1029,2 45 0,0
25.09.2018 03:00:00 8,6 6,1 - 15 8 - - ZW 1029,7 45 0,0
25.09.2018 02:00:00 9,6 7,0 - 15 8 - - ZZW 1029,9 50 0,0
25.09.2018 01:00:00 9,9 7,2 - 16 9 - - ZZW 1030,7 50 0,0
25.09.2018 00:00:00 9,6 7,4 - 21 11 - - WZW 1030,7 45 0,0
24.09.2018 23:00:00 9,8 7,0 - 18 10 - - ZW 1031,0 50 0,0
24.09.2018 22:00:00 9,5 6,4 - 15 8 - - ZZW 1031,2 50 0,0
24.09.2018 21:00:00 9,4 5,6 - 15 8 - - ZW 1031,3 45 0,0
24.09.2018 20:00:00 9,2 6,4 - 15 8 - - WZW 1031,2 45 0,0
24.09.2018 19:00:00 9,7 6,6 - 9 5 - - WZW 1031,5 45 0,0
24.09.2018 18:00:00 10,4 6,7 - 13 7 - - WNW 1031,7 30 0,0
24.09.2018 17:00:00 10,8 6,1 - 16 9 - - W 1031,7 40 0,0
24.09.2018 16:00:00 11,3 5,7 - 26 14 - - W 1031,7 45 0,0
24.09.2018 15:00:00 11,2 8,1 - 24 13 - - W 1031,9 40 0,2
24.09.2018 14:00:00 9,7 6,5 - 28 15 - - W 1032,1 30 0,0
24.09.2018 13:00:00 11,3 7,2 - 22 12 - - W 1031,6 24 0,2
24.09.2018 12:00:00 10,9 7,0 - 28 15 - - W 1031,5 29 0,0
24.09.2018 11:00:00 9,1 6,9 - 18 10 - - W 1031,3 30 0,2
24.09.2018 10:00:00 8,9 6,9 10,0 29 16 - - W 1030,6 30 0,0
24.09.2018 09:00:00 7,5 6,1 - 24 13 - - W 1030,2 40 0,0
24.09.2018 08:00:00 5,7 4,4 - 21 11 - - W 1029,7 35 0,0
24.09.2018 07:00:00 4,8 3,7 - 13 7 - - W 1029,3 40 0,2
24.09.2018 06:00:00 4,8 3,8 - 15 8 - - WZW 1028,7 45 0,2
24.09.2018 05:00:00 4,4 3,4 - 9 5 - - ZW 1028,8 35 0,0
24.09.2018 04:00:00 5,9 4,7 - 15 8 - - WNW 1028,7 27 0,4
24.09.2018 03:00:00 5,5 4,6 - 11 6 - - W 1028,0 40 0,0
24.09.2018 02:00:00 5,1 4,2 - 15 8 - - W 1027,4 29 0,0
24.09.2018 01:00:00 6,4 4,8 - 29 16 54 29 WNW 1026,8 40 1,8
24.09.2018 00:00:00 6,3 5,0 - 26 14 - - W 1025,8 14 0,0
23.09.2018 23:00:00 5,6 4,1 - 22 12 - - W 1025,1 30 0,2
23.09.2018 22:00:00 5,2 4,0 - 21 11 - - W 1025,0 24 0,0
23.09.2018 21:00:00 5,9 4,1 - 18 10 - - W 1024,3 26 0,0
23.09.2018 20:00:00 6,6 4,3 - 29 16 59 32 WNW 1023,6 35 0,2
23.09.2018 19:00:00 6,9 4,9 - 22 12 - - WNW 1022,9 45 0,0
23.09.2018 18:00:00 6,8 5,5 - 16 9 - - NW 1022,2 4,9 0,8
23.09.2018 17:00:00 9,1 4,9 - 18 10 - - NW 1021,5 26 0,0
23.09.2018 16:00:00 9,8 5,6 - 28 15 - - WNW 1021,0 21 0,0
23.09.2018 15:00:00 10,8 5,1 - 28 15 - - W 1020,1 45 0,0
23.09.2018 14:00:00 10,6 3,8 - 31 17 - - NW 1019,5 35 0,0
23.09.2018 13:00:00 9,9 4,7 - 13 7 - - WNW 1018,9 29 0,0
23.09.2018 12:00:00 8,9 7,1 - 22 12 - - W 1018,4 30 0,2
23.09.2018 11:00:00 7,6 5,5 - 22 12 - - W 1017,8 40 0,0
23.09.2018 10:00:00 7,5 5,5 10,5 18 10 - - WNW 1017,0 19 0,2
23.09.2018 09:00:00 6,9 5,6 - 22 12 - - WZW 1016,2 21 0,2
23.09.2018 08:00:00 5,8 5,3 - 22 12 - - W 1015,9 5 0,2
23.09.2018 07:00:00 3,4 2,7 - 16 9 - - W 1015,3 35 0,0
23.09.2018 06:00:00 4,6 3,0 - 15 8 - - W 1014,7 50 0,2
23.09.2018 05:00:00 3,1 2,1 - 16 9 - - W 1014,2 30 0,0
23.09.2018 04:00:00 4,2 3,2 - 21 11 - - W 1014,4 35 0,0
23.09.2018 03:00:00 4,2 3,5 - 18 10 - - W 1014,4 28 0,0
23.09.2018 02:00:00 4,6 3,7 - 18 10 - - W 1014,2 25 0,0
23.09.2018 01:00:00 4,2 3,0 - 18 10 - - W 1013,9 27 0,0
23.09.2018 00:00:00 5,4 4,1 - 16 9 - - W 1013,9 18 0,0
22.09.2018 23:00:00 4,4 3,3 - 16 9 - - W 1013,4 24 0,0
22.09.2018 22:00:00 4,8 3,3 - 15 8 - - W 1013,0 28 0,0
22.09.2018 21:00:00 5,2 3,4 - 13 7 - - W 1012,7 20 0,0
22.09.2018 20:00:00 7,0 3,5 - 22 12 - - WNW 1012,1 24 0,0
22.09.2018 19:00:00 8,3 4,9 - 22 12 - - WNW 1011,2 22 0,0
22.09.2018 18:00:00 9,6 4,9 - 28 15 48 26 WNW 1010,7 23 0,0
22.09.2018 17:00:00 9,6 5,7 - 31 17 48 26 WNW 1010,4 30 0,0
22.09.2018 16:00:00 10,6 6,5 - 34 18 55 30 NW 1009,9 30 0,0
22.09.2018 15:00:00 11,6 6,0 - 37 20 54 29 WNW 1009,5 28 0,0
22.09.2018 14:00:00 10,7 7,8 - 37 20 59 32 WNW 1008,8 25 0,2
22.09.2018 13:00:00 11,3 7,8 - 35 19 54 29 W 1007,6 21 0,0
22.09.2018 12:00:00 11,5 9,1 - 34 18 52 28 W 1006,8 18 0,0
22.09.2018 11:00:00 10,2 7,8 - 39 21 57 31 W 1006,2 25 0,2
22.09.2018 10:00:00 9,1 7,3 10,9 35 19 65 35 W 1005,5 30 0,2
22.09.2018 09:00:00 9,0 6,8 - 35 19 54 29 W 1004,5 22 0,0
22.09.2018 08:00:00 8,8 7,7 - 37 20 50 27 W 1003,4 19 0,4
22.09.2018 07:00:00 8,7 8,2 - 37 20 55 30 W 1002,0 4,2 0,8
22.09.2018 06:00:00 7,7 7,0 - 37 20 54 29 W 1001,1 7 0,4
22.09.2018 05:00:00 7,1 5,3 - 31 17 55 30 WZW 1001,4 7 0,0
22.09.2018 04:00:00 7,4 4,9 - 34 18 54 29 WZW 1002,0 12 0,2
22.09.2018 03:00:00 7,3 4,7 - 34 18 46 25 WZW 1001,9 22 0,0
22.09.2018 02:00:00 7,4 4,4 - 37 20 50 27 WZW 1001,5 45 0,0
22.09.2018 01:00:00 7,0 4,4 - 34 18 - - WZW 1001,2 45 0,0
22.09.2018 00:00:00 6,7 4,2 - 29 16 - - WZW 1001,3 40 0,0
21.09.2018 23:00:00 6,7 4,1 - 31 17 54 29 W 1000,8 40 0,0
21.09.2018 22:00:00 6,8 4,7 - 26 14 - - WZW 1000,7 50 0,0
21.09.2018 21:00:00 7,0 5,0 - 26 14 - - WZW 1000,4 45 0,0
21.09.2018 20:00:00 7,3 5,4 - 21 11 52 28 W 1000,5 18 0,0
21.09.2018 19:00:00 8,5 5,5 - 35 19 52 28 W 999,6 40 0,0
21.09.2018 18:00:00 9,4 4,9 - 26 14 61 33 W 999,0 35 0,0
21.09.2018 17:00:00 11,0 4,3 - 46 25 59 32 WNW 998,4 40 0,0
21.09.2018 16:00:00 10,0 5,7 - 39 21 67 36 WNW 997,5 30 0,0
21.09.2018 15:00:00 10,8 4,5 - 48 26 65 35 NW 996,3 29 0,0
21.09.2018 14:00:00 9,5 5,2 - 37 20 61 33 NW 995,2 28 0,0
21.09.2018 13:00:00 9,3 5,3 - 44 24 59 32 NW 994,0 19 0,0
21.09.2018 12:00:00 9,6 4,7 - 39 21 57 31 NW 992,8 30 0,0
21.09.2018 11:00:00 9,1 5,2 - 35 19 52 28 NW 991,8 26 0,0
21.09.2018 10:00:00 9,0 5,4 11,7 37 20 48 26 NNW 991,0 35 0,0
21.09.2018 09:00:00 8,8 6,5 - 35 19 54 29 NNW 990,2 18 0,0
21.09.2018 08:00:00 9,0 7,7 - 37 20 50 27 N 989,3 15 0,4
21.09.2018 07:00:00 8,8 8,7 - 28 15 - - N 989,0 12 3,4
21.09.2018 06:00:00 8,1 8,0 - 18 10 - - W 989,6 9 0,6
21.09.2018 05:00:00 7,7 7,4 - 13 7 - - W 990,3 23 0,2
21.09.2018 04:00:00 7,8 7,3 - 11 6 - - W 991,2 30 0,0
21.09.2018 03:00:00 8,0 7,0 - 8 4 - - ZW 992,3 19 0,0
21.09.2018 02:00:00 7,9 6,8 - 5 3 - - WZW 993,3 35 0,0
21.09.2018 01:00:00 7,8 6,7 - 11 6 - - W 994,0 40 0,0
21.09.2018 00:00:00 8,1 6,4 - 9 5 - - WNW 994,8 35 0,0
20.09.2018 23:00:00 9,6 6,9 - 5 3 - - ZZW 995,8 45 0,0
20.09.2018 22:00:00 9,5 6,7 - 8 4 - - ZZW 996,4 45 0,0
20.09.2018 21:00:00 10,0 7,1 - 8 4 - - ZW 996,8 40 0,0
20.09.2018 20:00:00 10,6 7,2 - 8 4 - - WZW 997,5 35 0,0
20.09.2018 19:00:00 11,7 6,9 - 15 8 - - ZW 997,7 45 0,0
20.09.2018 18:00:00 12,4 7,0 - 26 14 - - WZW 997,8 40 0,0
20.09.2018 17:00:00 13,2 7,2 - 28 15 48 26 WZW 997,7 29 0,0
20.09.2018 16:00:00 13,6 6,8 - 37 20 54 29 WZW 997,4 35 0,0
20.09.2018 15:00:00 14,2 7,5 - 41 22 61 33 WZW 997,1 40 0,0
20.09.2018 14:00:00 14,1 8,2 - 44 24 76 41 WZW 996,8 35 0,0
20.09.2018 13:00:00 13,4 7,0 - 57 31 85 46 WZW 995,6 35 0,0
20.09.2018 12:00:00 13,0 6,3 - 54 29 76 41 WZW 994,9 30 0,0
20.09.2018 11:00:00 11,5 4,9 - 39 21 59 32 ZW 994,7 21 0,0
20.09.2018 10:00:00 11,7 5,4 11,7 41 22 59 32 ZZW 993,9 28 0,0
20.09.2018 09:00:00 10,7 5,3 - 46 25 65 35 ZZW 994,0 29 0,0
20.09.2018 08:00:00 9,5 4,1 - 39 21 57 31 ZZW 993,8 35 0,0
20.09.2018 07:00:00 9,3 5,1 - 41 22 57 31 ZZW 993,4 30 0,0
20.09.2018 06:00:00 9,7 5,3 - 39 21 54 29 ZZW 993,3 35 0,0
20.09.2018 05:00:00 9,6 6,2 - 35 19 54 29 ZZW 993,4 30 0,0
20.09.2018 04:00:00 9,5 6,4 - 42 23 61 33 ZZW 992,8 35 0,0
20.09.2018 03:00:00 9,7 6,2 - 44 24 61 33 ZZW 992,2 35 0,0
20.09.2018 02:00:00 9,4 6,0 - 39 21 61 33 ZZW 992,1 40 0,0
20.09.2018 01:00:00 9,5 5,9 - 44 24 57 31 ZZW 991,7 30 0,0
20.09.2018 00:00:00 9,6 6,0 - 39 21 61 33 ZZW 991,4 35 0,0
19.09.2018 23:00:00 9,4 5,3 - 39 21 55 30 ZZW 990,8 30 0,0
19.09.2018 22:00:00 9,1 5,0 - 29 16 - - ZZW 990,4 45 0,0
19.09.2018 21:00:00 10,0 5,3 - 34 18 65 35 ZZW 989,5 40 0,0
19.09.2018 20:00:00 10,1 5,4 - 50 27 78 42 ZW 988,0 35 0,0
19.09.2018 19:00:00 10,5 6,9 - 50 27 68 37 ZW 986,0 30 0,0
19.09.2018 18:00:00 10,2 6,9 - 41 22 104 56 WZW 984,5 40 0,0
19.09.2018 17:00:00 12,0 9,1 - 41 22 61 33 ZW 979,5 45 0,2
19.09.2018 16:00:00 12,7 9,2 - 41 22 68 37 ZZW 977,7 35 0,0
19.09.2018 15:00:00 13,0 9,1 - 54 29 102 55 ZZW 976,8 29 0,8
19.09.2018 14:00:00 13,4 11,1 - 46 25 74 40 ZZO 975,2 4,0 1,4
19.09.2018 13:00:00 12,1 10,9 - 41 22 59 32 OZO 979,9 4,4 0,8
19.09.2018 12:00:00 10,5 9,1 - 37 20 59 32 ZO 985,1 6 3,0
19.09.2018 11:00:00 11,4 8,1 - 24 13 46 25 ZZO 988,6 8 0,6
19.09.2018 10:00:00 11,8 7,4 12,2 24 13 - - ZZO 990,5 30 0,0
19.09.2018 09:00:00 11,5 8,0 - 15 8 - - ZO 992,0 25 0,0
19.09.2018 08:00:00 10,5 7,6 - 18 10 - - Z 992,9 30 0,0
19.09.2018 07:00:00 9,3 7,3 - 11 6 - - ZZW 993,6 30 0,0
19.09.2018 06:00:00 9,1 6,7 - 16 9 - - ZZW 993,2 35 0,0

tt = temperatuur
td = dauwpunt
tt -20cm = temperatuur -20cm
ff = windsnelheid
fx = windstoten
dd = windrichting
ppp = luchtdruk
vv = zicht
rr = neerslag

Weerstations in de omgeving